RH
40 34 32 32 39 51 66 99 98 93 100 97 100 98 98 81 83 74 85 94 97 98 87 94 97 89 77 68 71 84 86 97 96 94 91 95 94 90 88 96 92 95 94 98
21 16 13 11 15 40 87 98 92 97 89 98 98 80 96 97 98 90 97 98 97 80 97 98 98 95 75 72 76 97 97 97 96 95 95 94 94 92 93 94 95 95 95 99
11 10 28 32 20 36 52 99 97 97 100 100 99 98 97 92 88 97 97 98 96 97 98 98 99 99 82 79 72 70 90 98 96 90 87 92 95 91 93 94 95 95 97 97
12 24 46 19 9 12 32 98 92 98 100 95 95 91 93 93 92 79 86 85 93 95 96 90 98 96 95 97 94 99 99 97 94 92 94 93 96 96 96 96 97 97 99 97
16 25 24 7 9 14 70 99 97 97 98 86 89 90 96 96 84 87 90 89 90 93 94 96 96 95 95 95 92 95 95 97 92 96 94 90 96 96 97 97 97 96 96 98
34 34 31 30 33 34 74 90 79 89 85 93 93 100 92 92 90 85 93 95 96 92 97 95 96 93 94 92 95 95 95 96 96 99 95 95 91 99 96 97 97 97 98 98
39 40 45 51 52 76 98 98 88 82 100 98 100 100 99 100 98 96 84 94 93 96 96 97 96 81 70 65 64 80 96 95 95 97 96 99 96 94 90 95 98 96 96 96
27 34 43 48 66 76 80 84 81 76 100 97 92 96 100 91 81 93 97 96 96 96 96 97 95 85 70 74 65 58 67 96 96 97 98 100 97 95 95 96 98 97 98 92
19 17 20 28 42 60 72 74 79 50 64 78 98 100 97 100 100 88 88 70 81 95 95 94 97 99 97 90 76 44 58 64 87 96 96 97 96 93 93 97 96 90 86 88
17 11 9 13 18 17 22 31 14 16 62 69 76 92 100 100 100 100 87 88 80 66 92 91 95 99 96 99 100 100 83 90 98 96 99 99 94 70 69 84 86 75 76 77
15 11 11 9 7 7 5 12 8 11 42 59 61 72 85 92 98 100 79 83 80 83 97 93 100 100 100 93 100 100 100 100 99 87 87 86 75 61 59 78 85 89 91 82
10 9 9 9 9 12 10 8 8 12 22 38 41 45 44 53 78 100 82 89 97 100 96 99 95 90 84 98 78 79 77 98 99 78 87 76 84 80 74 67 74 85 82 80
11 11 11 11 9 9 8 8 10 15 22 23 32 36 39 29 27 36 54 41 49 48 64 74 95 86 90 81 79 83 86 99 87 67 64 84 78 58 57 65 73 88 92 88
12 14 13 12 12 12 10 10 12 12 15 30 25 27 30 31 24 18 23 30 36 40 40 67 96 91 78 92 82 90 98 91 99 84 60 54 57 54 63 76 88 93 81 91
11 12 12 14 14 14 14 14 13 13 14 30 22 26 26 25 24 27 23 14 16 21 43 86 100 96 87 99 89 94 86 82 84 73 43 65 56 60 81 92 80 74 94 90
12 13 12 14 15 12 13 14 16 16 16 18 56 25 24 20 20 21 27 32 34 35 51 100 93 86 55 87 78 34 61 70 75 60 63 82 82 69 56 58 73 77 83 72
13 14 14 14 13 16 19 22 19 17 18 17 34 40 28 28 24 27 29 26 35 41 56 62 70 68 74 99 100 88 87 89 81 80 88 74 45 58 74 67 64 71 67 66
13 15 16 14 15 14 18 21 25 19 17 25 81 67 38 44 44 41 42 44 38 46 61 67 75 68 75 98 79 85 90 94 82 57 70 78 79 68 51 58 60 60 55 53
13 14 16 16 21 20 23 22 22 31 28 42 69 99 88 61 57 63 53 60 78 66 83 84 81 95 98 81 86 94 92 99 98 97 98 95 84 62 55 54 47 56 46 47
13 16 19 22 29 28 29 33 33 36 51 61 91 100 98 85 76 72 75 68 97 89 91 85 91 89 62 66 77 90 93 94 98 98 93 88 92 88 75 60 55 55 50 51
13 17 23 26 25 27 28 41 57 60 76 87 100 100 100 92 97 100 100 100 90 72 81 84 88 89 63 73 74 81 97 99 96 97 95 96 98 96 95 88 79 70 64 55
20 22 26 24 20 18 37 90 56 78 89 84 93 99 100 94 100 100 96 87 80 58 89 80 84 84 82 89 87 81 85 96 100 100 98 96 96 97 97 96 94 94 88 82
22 19 22 25 30 56 68 86 75 83 72 84 98 95 95 92 100 100 94 66 79 82 82 66 76 71 90 94 96 90 82 86 94 91 94 99 98 99 98 96 95 100 98 94
18 19 42 63 66 79 87 84 78 64 76 88 100 100 99 98 98 100 77 80 94 87 92 92 88 94 97 98 98 100 97 79 81 80 82 88 92 91 97 97 97 98 94 96
18 17 47 55 39 44 51 60 67 73 89 100 100 97 100 95 99 98 92 84 90 90 96 96 93 98 100 98 98 100 98 100 91 80 75 67 68 77 83 94 97 98 98 99
17 21 42 34 43 41 51 55 60 71 89 99 100 99 87 95 99 79 96 99 99 95 92 94 97 97 100 100 100 100 100 100 97 85 77 70 66 70 78 83 86 96 98 96
18 29 36 39 44 46 51 51 54 65 72 98 95 84 96 96 92 92 95 96 94 95 96 99 100 100 99 99 99 100 100 95 93 93 90 85 79 84 87 86 81 93 96 96
Wind_Speed
29 30 30 28 27 28 20 11 4 7 8 5 5 5 6 12 13 17 15 9 15 11 10 11 12 15 14 14 10 10 9 5 5 6 1 1 4 3 6 3 4 3 1 3
30 31 31 29 26 22 18 7 15 14 18 6 6 14 13 12 10 15 7 11 12 15 13 14 12 8 8 15 13 9 7 4 3 3 1 3 4 4 3 1 1 3 3 4
32 31 25 22 20 17 14 5 4 2 8 6 6 11 10 10 20 10 14 14 15 17 14 12 5 8 7 15 13 24 16 6 4 3 3 2 6 7 4 3 3 4 3 8
26 25 22 21 19 16 8 3 4 5 4 6 7 10 8 8 9 8 15 5 9 7 6 10 9 12 11 10 17 7 4 4 9 15 16 20 14 14 15 6 3 3 7 7
24 23 22 19 19 15 4 5 5 10 11 13 8 12 7 6 8 6 7 9 13 10 4 5 6 6 9 1 8 9 11 6 5 9 14 23 23 14 9 9 8 13 12 8
26 24 23 22 20 15 4 2 3 3 16 7 4 2 7 8 14 6 10 12 6 9 4 5 18 24 18 11 5 7 5 2 4 5 6 2 10 10 8 4 7 2 3 3
29 27 24 23 21 17 11 7 7 3 2 4 1 3 4 7 5 5 14 15 5 7 7 2 4 8 16 15 17 17 6 4 3 4 4 5 4 5 11 10 6 7 7 4
34 33 30 27 21 19 15 12 4 5 2 5 5 12 5 17 16 4 5 8 15 18 8 3 3 3 5 10 10 19 15 2 5 4 5 4 1 3 4 4 2 5 3 5
36 36 36 33 25 20 12 13 10 8 12 9 12 6 9 4 5 7 4 13 14 17 2 3 5 5 4 7 14 10 15 15 4 3 5 3 1 2 7 4 2 2 5 7
35 35 35 32 28 23 21 16 14 14 14 13 13 5 5 9 5 3 8 15 16 19 4 4 5 3 2 4 5 7 7 5 7 6 5 2 1 8 5 3 2 3 8 10
28 28 30 33 31 27 23 27 32 39 24 21 21 18 11 9 6 2 10 5 7 7 5 3 3 4 2 4 2 2 4 3 3 2 5 3 5 3 4 3 4 4 10 13
30 30 27 25 23 11 12 38 43 43 35 19 28 28 25 18 14 6 9 3 3 3 3 3 3 4 3 2 2 4 4 4 2 4 4 2 2 4 7 6 5 8 16 16
23 23 24 28 30 24 19 17 12 14 15 26 27 23 27 29 23 19 7 6 6 6 7 5 2 7 2 3 2 0 4 1 1 3 4 6 4 7 5 8 10 14 18 18
17 14 14 16 18 24 26 21 14 14 9 6 10 21 23 26 27 25 16 11 13 14 11 8 3 3 3 2 2 2 2 1 1 5 7 10 7 7 7 11 15 21 19 19
25 25 21 14 12 9 10 15 19 19 9 4 2 10 16 15 20 28 23 17 23 17 7 6 1 3 3 2 1 3 3 4 2 4 4 5 12 10 17 21 21 18 21 24
16 16 15 22 24 11 3 2 9 8 6 2 1 3 21 11 11 15 23 22 24 14 6 5 5 4 2 3 1 5 8 9 11 6 15 19 23 23 16 14 21 21 24 23
15 14 12 12 9 15 19 9 10 8 4 2 2 4 11 23 14 11 11 14 11 9 5 6 3 3 2 2 1 14 18 15 14 16 18 18 7 14 24 24 23 23 24 24
14 13 13 10 10 7 11 15 22 9 4 6 3 5 5 23 10 8 13 8 6 10 5 3 4 1 2 3 14 21 19 18 15 9 15 22 23 25 23 21 21 24 25 25
12 12 8 5 8 6 11 9 8 14 12 6 6 3 4 17 10 7 6 6 4 4 4 3 3 2 2 7 17 19 19 15 20 21 22 23 24 24 24 23 23 26 27 26
7 7 4 5 10 11 7 5 5 8 10 8 5 5 3 11 9 5 10 5 2 2 2 7 2 2 5 12 17 19 20 20 19 23 25 25 27 26 27 26 25 25 27 27
4 3 4 9 12 8 7 8 11 11 6 9 9 6 6 8 3 3 7 1 3 3 3 2 3 2 8 27 26 28 24 22 22 21 23 24 25 28 28 28 27 27 27 27
5 4 6 9 9 10 9 2 6 6 2 10 9 9 6 5 5 3 5 1 3 2 7 3 2 3 23 35 35 35 29 26 26 24 25 24 25 25 27 28 28 27 27 27
6 4 5 8 10 12 6 6 5 5 11 7 17 10 6 3 3 3 3 4 2 4 3 2 3 14 31 35 34 37 35 31 28 26 25 25 26 26 26 29 28 27 28 27
6 7 8 4 5 1 4 4 5 10 11 20 22 5 3 3 4 2 3 2 1 4 4 3 4 30 35 38 38 34 38 35 32 30 28 28 29 30 28 27 27 27 29 28
6 7 4 2 1 3 8 11 11 12 16 16 6 4 3 3 2 1 3 6 4 2 3 3 32 38 37 38 40 38 38 37 35 33 32 31 30 30 30 27 27 28 28 28
7 7 4 1 2 4 8 11 12 19 18 6 3 2 2 3 2 4 1 2 3 4 16 33 36 37 38 38 38 38 38 36 35 33 33 33 33 32 32 32 30 28 27 28
5 4 3 0 1 3 7 11 17 19 11 6 3 5 2 5 3 4 0 3 9 29 34 34 34 36 38 39 39 38 37 35 34 34 33 33 31 30 31 32 31 30 30 30
Wind_Direction
322 323 322 322 321 318 320 303 260 285 247 219 242 231 237 257 263 247 252 254 242 229 246 239 223 227 212 188 151 167 208 200 190 190 286 102 81 144 174 187 226 223 244 128
321 319 319 321 322 324 329 279 270 271 265 268 285 272 261 278 271 276 240 245 232 256 247 250 212 202 219 178 164 190 171 214 161 139 56 52 83 28 352 50 89 201 212 145
329 331 335 332 328 321 326 292 293 260 218 289 312 325 341 349 348 341 360 322 322 320 265 238 213 208 231 202 214 209 168 184 170 223 97 76 80 22 346 304 179 127 49 131
344 349 348 344 349 344 333 243 273 2 323 22 9 8 21 345 347 330 18 342 45 347 308 328 339 354 310 69 8 309 202 158 74 66 77 82 83 56 50 70 348 35 123 99
3 359 360 4 1 7 53 339 345 353 15 355 13 8 19 319 346 311 347 356 347 24 50 333 320 338 21 49 330 5 334 109 94 65 86 83 66 43 57 53 62 82 98 87
16 12 13 12 14 22 75 340 322 41 18 352 44 19 314 304 345 274 32 346 326 15 23 96 81 90 84 49 0 353 10 300 107 135 179 338 40 7 44 67 36 47 83 83
27 29 26 23 25 38 46 49 50 56 336 40 34 312 251 284 286 266 304 1 23 350 301 353 117 93 85 44 38 37 10 24 51 112 270 71 236 58 87 89 42 38 74 74
42 40 37 36 38 45 49 70 79 107 89 313 324 328 291 318 327 318 297 4 334 325 304 284 333 355 4 22 21 20 22 29 69 109 56 152 136 27 27 29 47 23 11 343
48 47 46 44 43 45 43 65 81 92 112 350 319 319 333 333 318 329 317 340 358 358 272 42 40 30 326 340 339 9 20 30 74 94 95 83 328 357 350 188 145 10 0 330
49 50 49 45 48 59 64 85 88 98 98 28 22 15 296 326 315 246 302 337 348 13 38 56 32 36 344 24 20 333 350 0 55 36 92 105 318 311 341 64 239 10 -0 330
60 58 51 51 53 58 59 83 82 84 88 57 45 36 16 358 351 0 318 351 10 357 52 69 9 52 348 74 322 20 38 29 5 5 72 28 355 7 121 189 165 347 333 331
60 55 53 44 40 33 34 72 75 76 77 72 53 43 34 28 17 332 15 71 328 4 80 40 91 34 29 190 13 340 29 144 198 136 202 266 258 273 308 222 275 319 321 323
57 50 51 51 50 48 49 68 75 76 70 59 46 41 44 43 39 39 23 28 26 44 68 121 139 79 135 53 322 319 333 152 72 40 281 250 267 281 237 246 279 306 313 307
27 27 29 26 35 45 50 57 59 69 89 81 41 43 46 49 47 50 59 72 71 70 62 73 81 96 21 192 189 132 221 352 246 267 283 291 253 242 289 273 284 300 307 304
51 45 33 6 343 352 13 35 51 59 64 139 184 42 37 45 54 59 63 68 69 61 52 53 73 94 89 30 89 349 205 201 108 246 219 258 279 298 301 298 295 302 307 305
18 16 21 34 33 24 4 327 13 27 52 128 59 54 27 38 44 52 54 52 53 56 66 84 78 49 80 83 75 260 279 274 259 263 297 291 295 297 295 291 307 311 304 307
345 344 351 355 357 26 56 40 353 14 22 78 66 2 3 11 26 23 30 39 38 46 78 59 68 60 36 94 8 321 332 323 301 285 282 291 300 302 304 308 310 305 302 305
336 338 341 354 7 16 23 25 31 22 60 58 56 313 359 11 356 3 6 13 30 38 70 56 33 10 26 34 314 324 329 320 311 313 294 298 302 302 308 307 307 304 306 309
330 340 1 11 13 5 349 2 30 40 55 84 66 28 301 347 8 346 338 357 48 29 57 28 350 298 63 271 308 324 337 312 308 310 304 303 299 309 311 311 311 307 308 310
335 1 25 16 352 358 11 32 23 31 38 51 79 354 301 336 337 343 356 19 59 53 303 332 57 252 252 341 343 342 341 336 314 304 313 317 311 311 310 309 307 305 305 306
23 30 41 20 21 21 37 35 32 359 33 15 9 3 320 344 354 301 11 269 337 57 300 81 336 305 349 351 341 344 334 330 327 313 307 308 304 306 308 308 308 307 307 306
56 64 57 29 27 29 55 357 357 33 300 347 354 340 316 317 323 321 349 81 24 286 331 62 332 254 350 346 340 341 344 335 328 323 317 313 308 308 304 305 310 311 308 307
54 50 51 20 14 37 57 342 319 342 344 334 333 329 310 310 316 302 359 31 255 312 33 255 235 330 338 340 335 333 337 339 332 325 319 315 316 317 310 307 310 310 308 309
50 42 28 68 355 309 189 204 243 294 293 314 321 301 319 323 339 342 38 234 16 14 13 288 317 333 331 332 333 330 330 334 332 330 325 320 318 315 315 315 314 309 307 311
65 48 60 61 321 303 308 311 309 327 317 321 312 296 322 322 333 8 310 355 346 215 315 293 327 326 328 330 331 332 332 331 329 329 326 325 322 318 313 315 315 315 312 307
56 57 75 127 340 332 344 340 340 345 339 343 340 307 9 25 333 12 27 4 279 318 324 320 321 323 326 329 330 333 332 332 330 330 329 328 327 323 317 314 316 317 317 314
64 76 65 79 302 323 351 357 352 352 355 12 354 35 304 291 345 6 62 340 317 317 316 318 321 322 326 332 335 335 336 339 340 337 336 333 332 329 327 325 325 320 317 316